Grand Marais, MN

10:05 PM CDT on September 16, 2019 (GMT -0500)
Grand Marais

Weather History for KGNA - August, 2019

Change the Weather History Date:

Sunday, August 25, 2019

  Actual Average (WUND) Record (WUND)
Temperature  
Mean Temperature 60 °F -  
Max Temperature 68 °F - - (-1)
Min Temperature 54 °F - - (-1)
Degree Days  
Heating Degree Days 5    
Growing Degree Days 10 (Base 50)    
Moisture  
Dew Point 56 °F    
Average Humidity 81    
Maximum Humidity 93    
Minimum Humidity 68    
Precipitation  
Precipitation 0.00 in - - ()
Sea Level Pressure  
Sea Level Pressure 30.06 in    
Wind  
Wind Speed 5 mph (NE)    
Max Wind Speed 10 mph    
Max Gust Speed 16 mph    
Averages and records for this station are not official NWS values.
T = Trace of Precipitation, MM = Missing Value Source: NWS Daily Summary

Daily Weather History Graph

Daily Weather History Graph

Search for Another Location

Airport or City:

Astronomy

Aug. 25, 2019 Rise Set
Actual Time 6:10 AM CDT 7:55 PM CDT
Civil Twilight 5:37 AM CDT 8:28 PM CDT
Nautical Twilight 4:57 AM CDT 9:08 PM CDT
Astronomical Twilight 4:12 AM CDT 9:52 PM CDT
Moon 12:31 AM CDT (8/25) 4:32 PM CDT (8/25)
Length of Visible Light 14h 51m
Length of Day
13h 45m
Waning Crescent, 29% of the Moon is Illuminated
Aug 25
Waning Crescent
Aug 30
New
Sep 5
First Quarter
Sep 13
Full
Sep 21
Last Quarter

Hourly Weather History & Observations

Time (CDT) Temp. Dew Point Humidity Pressure Visibility Wind Dir Wind Speed Gust Speed Precip Events Conditions
12:56 AM 55.0 °F 53.1 °F 93% 30.15 in - NNW 4.6 mph - N/A   Unknown
1:56 AM 54.0 °F 52.0 °F 93% 30.14 in - North 4.6 mph - N/A   Unknown
2:56 AM 55.9 °F 54.0 °F 93% 30.13 in - North 3.5 mph - N/A   Unknown
3:56 AM 61.0 °F 59.0 °F 93% 30.12 in - Calm Calm - N/A   Unknown
4:56 AM 63.0 °F 59.0 °F 87% 30.12 in - WSW 6.9 mph - N/A   Unknown
5:56 AM 63.0 °F 57.9 °F 84% 30.12 in - WSW 4.6 mph - N/A   Unknown
6:56 AM 62.1 °F 57.0 °F 84% 30.12 in - Variable 4.6 mph - N/A   Unknown
7:56 AM 62.1 °F 57.0 °F 84% 30.13 in - SSW 3.5 mph - N/A   Unknown
8:56 AM 62.1 °F 57.0 °F 84% 30.12 in - SSW 4.6 mph - N/A   Unknown
9:56 AM 63.0 °F 57.0 °F 81% 30.12 in - SW 8.1 mph - N/A   Unknown
10:56 AM 63.0 °F 55.9 °F 78% 30.11 in - Variable 4.6 mph 16.1 mph N/A   Unknown
11:56 AM 63.0 °F 55.9 °F 78% 30.09 in - SSW 5.8 mph - N/A   Unknown
12:56 PM 63.0 °F 57.0 °F 81% 30.09 in - South 3.5 mph - N/A   Unknown
1:56 PM 66.9 °F 59.0 °F 76% 30.06 in - East 5.8 mph - N/A   Unknown
2:56 PM 64.9 °F 57.9 °F 78% 30.05 in - ENE 5.8 mph - N/A   Unknown
3:56 PM 66.9 °F 57.0 °F 70% 30.02 in - ENE 5.8 mph - N/A   Unknown
5:56 PM 64.0 °F 54.0 °F 70% 30.00 in - ENE 10.4 mph - N/A   Unknown
6:56 PM 64.9 °F 54.0 °F 68% 29.97 in - NE 5.8 mph - N/A   Unknown
7:56 PM 64.0 °F 54.0 °F 70% 29.96 in - NE 5.8 mph - N/A   Unknown
8:56 PM 64.0 °F 55.9 °F 75% 29.96 in - NE 8.1 mph - N/A   Unknown
9:56 PM 63.0 °F 57.0 °F 81% 29.96 in - NE 4.6 mph - N/A   Unknown
10:56 PM 62.1 °F 57.0 °F 84% 29.94 in - Variable 3.5 mph - N/A   Unknown
11:56 PM 61.0 °F 57.0 °F 87% 29.94 in - Calm Calm - N/A   Unknown